Regional Weather Roundup
Issued by NWS

Home | Current Version | Previous Version | Text Only | Print | Product List | Glossary Off
Versions: 1 2 3 4 5 6 7 8 9 10 11 12 13 14 15 16 17 18 19 20 21 22 23 24 25 26 27 28 29 30 31 32 33 34 35 36 37 38 39 40 41 42 43 44 45 46 47 48 49 50

000
ASUS43 KDTX 231410
RWRMI
MICHIGAN HOURLY REGIONAL WEATHER ROUNDUP
NATIONAL WEATHER SERVICE DETROIT/PONTIAC MI
1000 AM EDT THU MAR 23 2017

NOTE: "FAIR" INDICATES FEW OR NO CLOUDS BELOW 12,000 FEET WITH NO
SIGNIFICANT WEATHER AND/OR OBSTRUCTION TO VISIBILITY.

MIZ047>049-052>055-059>063-066>070-074>076-081>083-231500-
SOUTHEAST LOWER MICHIGAN

CITY           SKY/WX    TMP DP  RH WIND       PRES   REMARKS
ADRIAN         SUNNY     28  19  69 SE10      30.53F WCI  19
ALMA           CLOUDY    30  20  68 S10       30.51F WCI  21
ANN ARBOR      CLOUDY    29  19  66 E7        30.54F WCI  22
BAD AXE        SUNNY     28  20  70 S9        30.56S WCI  20
CARO           CLOUDY    29  19  65 S7        30.54S WCI  22
DETROIT CITY   SUNNY     30  15  53 SE10      30.59R WCI  21
DETROIT        CLOUDY    32  15  49 SE12      30.58S WCI  23
FLINT          SUNNY     29  18  63 S9        30.54F WCI  20
GROSSE ILE     CLOUDY    32  17  53 S10       30.57R WCI  24
HILLSDALE      SUNNY     28  18  64 SE13G20   30.48S WCI  18
HOWELL         CLOUDY    30  21  69 SE13      30.52F WCI  20

CITY           SKY/WX    TMP DP  RH WIND       PRES   REMARKS
JACKSON        SUNNY     29  18  63 SE15      30.50F WCI  18
LAMBERTVILLE   CLOUDY    32  15  50 SE9       30.55S WCI  24
LANSING        SUNNY     31  18  58 SE17      30.50F WCI  19
LAPEER         FAIR      30  15  54 S8        30.55F WCI  22
MASON          SUNNY     29  21  73 SE10      30.50F WCI  19
MONROE         CLOUDY    31  23  73 SE8       30.56F WCI  23
MT. CLEMENS    PTSUNNY   30  15  51 SE10      30.56S WCI  21
PONTIAC        PTSUNNY   28  11  48 SE14      30.53F WCI  17
PORT HOPE        N/A     30  20  66 VRB6      30.54F WCI  24
PORT HURON     SUNNY     28  12  50 SE5       30.59R WCI  23
TRI CITIES     CLOUDY    29  19  66 S12       30.54S WCI  19
MIDLAND        FAIR      31  19  61 S7        30.52F WCI  24
TROY           SUNNY     31  11  43 SE6       30.59R WCI  25
SAGINAW HB     CLOUDY    30  18  59 S9        30.54S WCI  22
$$
MIZ043>046-050>051-056>058-064>065-071>073-077>080-231500-
SOUTHWEST LOWER MICHIGAN

CITY           SKY/WX    TMP DP  RH WIND       PRES   REMARKS
BATTLE CREEK   SUNNY     30  15  53 SE12      30.48S WCI  20
BENTON HARBOR  CLOUDY    30  16  56 SE10      30.46S WCI  21
BIG RAPIDS     MOSUNNY   28  19  67 S5        30.46F WCI  23
COLDWATER      CLOUDY    30  12  46 SE9G17    30.49R WCI  22
FREMONT        FAIR      31  16  54 SE7       30.46F WCI  24
HOLLAND        CLOUDY    30  18  60 SE14      30.47F WCI  19
GRAND RAPIDS   PTSUNNY   30  16  56 SE10      30.48F WCI  21
IONIA          FAIR      28  19  67 SE14      30.49S WCI  17
KALAMAZOO      CLOUDY    30  14  51 SE10      30.48S WCI  21
LUDINGTON      CLOUDY    31  18  60 S6        30.45S WCI  25
MARSHALL       SUNNY     30  17  59 SE12      30.49S WCI  20
MOUNT PLEASANT SUNNY     30  19  63 SE9       30.49F WCI  22
MUSKEGON       PTSUNNY   32  17  54 SE14      30.47F WCI  22
SOUTH HAVEN    CLOUDY    30  17  59 SE9       30.47S WCI  21
$$
MIZ016>042-231500-
NORTHERN LOWER MICHIGAN

CITY           SKY/WX    TMP DP  RH WIND       PRES   REMARKS
ALPENA         CLOUDY    28  18  66 S7        30.50F WCI  21
BEAVER ISLAND  CLOUDY    32  20  62 S7        30.43F WCI  25
BELLAIRE       MOSUNNY   30  16  55 S5        30.47S WCI  25
CADILLAC       MOSUNNY   30  15  53 S9        30.42F WCI  21
CHARLEVOIX     MOSUNNY   30  15  54 S8        30.48S WCI  22
FRANKFORT      CLOUDY    31  15  52 SE7       30.44F WCI  24
GAYLORD        CLOUDY    29  12  49 S10       30.43F WCI  20
GRAYLING       CLOUDY    28  14  54 S6        30.46S WCI  22
HARBOR SPRINGS CLOUDY    28  14  54 CALM      30.45F
HOUGHTON LAKE  CLOUDY    29  15  56 S8        30.47F WCI  21
MANISTEE       CLOUDY    30  19  63 SE7       30.45F WCI  23
OSCODA         SUNNY     31  21  64 SW9       30.53S WCI  23
PELLSTON       CLOUDY    26  13  57 S5        30.46F WCI  20
ROGERS CITY    CLOUDY    30  16  55 S6        30.50S WCI  24
TRAVERSE CITY  CLOUDY    31  14  49 VRB3      30.45F
$$
MIZ007>008-015-231500-
EASTERN UPPER MICHIGAN

CITY           SKY/WX    TMP DP  RH WIND       PRES   REMARKS
KINROSS        CLOUDY    23  16  74 SE9       30.45F WCI  13
MACKINAC ISLAN CLOUDY    27  13  53 S6        30.45S WCI  21
NEWBERRY       MOSUNNY   26  19  76 S6        30.40F WCI  19
S. S. MARIE    CLOUDY    22  13  68 E5        30.46F WCI  16
MUNISING         N/A     29  21  72 S9        30.37F WCI  20
$$
MIZ004>006-011>014-085-231500-
CENTRAL UPPER MICHIGAN

CITY           SKY/WX    TMP DP  RH WIND       PRES   REMARKS
MANISTIQUE     CLOUDY    32  25  74 S13       30.40F WCI  22
ESCANABA       CLOUDY    29  26  89 CALM      30.40F
MENOMINEE        N/A    N/A N/A N/A MISG        N/A
SAWYER-GWINN   CLOUDY    25  19  80 S15       30.32F WCI  12
$$
MIZ001>003-009>011-084-231500-
WESTERN UPPER MICHIGAN

CITY           SKY/WX    TMP DP  RH WIND       PRES   REMARKS
IRON MOUNTAIN  CLOUDY    26  17  68 S9        30.33F WCI  17
HOUGHTON       CLOUDY    29  18  63 S13       30.24F WCI  19
COPPER HARBOR    N/A     31  21  66 SW8G17    30.26F WCI  23
IRONWOOD       CLOUDY    29  24  82 S14G22    30.18F WCI  18
$$

ABBREVIATIONS USED IN REMARKS
   TC - TEMPERATURE IN CELSIUS
  WCI - WIND CHILL INDEX
   HX - HEAT INDEX
  VSB - VISIBILITY





USA.gov is the U.S. government's official web portal to all federal, state and local government web resources and services.